Flag for Canada Weather past 2 weeks in Gatineau, Quebec, Canada

Now
54 °F

Partly sunny.


Feels Like: 52 °F
Forecast: 47 / 64 °F
Wind: 7 mph from West

Location: Ottawa Int'L. Ont.

Current Time: Sep 16, 2014 at 9:28:14 AM

Latest Report: Sep 16, 2014 at 9:00 AM


Visibility: 15 mi

Pressure: 30.01 "Hg

Humidity: 88%

Dew point: 50 °F

Location of GatineauLocation

Historic Weather in Gatineau — Graph

°F

Gatineau temperature yesterday

Maximum temperature yesterday: 63 °F (at 12:00 PM)
Minimum temperature yesterday: 41 °F (at 7:00 AM)
Average temperature yesterday: 53 °F

Past Weeks' High & Low Weather Summary

 TemperatureHumidityPressure
High82 °F (Sep 2, 1:00 PM)100% (Sep 2, 7:00 PM)30.37 "Hg (Sep 2, 7:00 PM)
Low41 °F (Sep 15, 7:00 AM)39% (Sep 3, 5:00 PM)29.49 "Hg (Sep 11, 8:00 AM)
Average62 °F80%30.04 "Hg
* Reported Sep 1 8:00 AM — Sep 16 8:00 AM, Gatineau, Weather by CustomWeather, © 2014

Note: Actual official high and low records may vary slightly from our data, if they occured in-between our weather recording intervals... More about our weather records

Advertising

Gatineau weather history for previous 24 hours

 ConditionsComfort  
Time TempWeatherWind HumidityBarometerVisibility
8:00 AM
Sep 16
50 °FPartly sunny.2 mph100%30.01 "Hg15 mi
7:00 AM48 °FPartly cloudy.6 mph100%30.00 "Hg15 mi
6:00 AM48 °FPassing clouds.6 mph100%29.99 "Hg15 mi
5:00 AM50 °FMostly cloudy.5 mph100%29.99 "Hg15 mi
4:00 AM50 °FPassing clouds.3 mph100%29.98 "Hg15 mi
3:00 AM52 °FOvercast.5 mph94%30.00 "Hg15 mi
2:00 AM52 °FLight rain. Overcast.5 mph94%30.00 "Hg15 mi
1:00 AM52 °FLight rain. Overcast.6 mph94%30.00 "Hg15 mi
12:00 AM52 °FLight rain. Mostly cloudy.6 mph94%30.01 "Hg15 mi
11:00 PM
Sep 15
52 °FLight rain. Overcast.5 mph94%30.02 "Hg15 mi
10:00 PM52 °FLight rain. Mostly cloudy.8 mph94%30.04 "Hg8 mi
9:00 PM54 °FLight rain. Mostly cloudy.5 mph94%30.05 "Hg15 mi
8:45 PM54 °FLight rain. Overcast.6 mph94%30.05 "Hg15 mi
8:00 PM55 °FSprinkles. Overcast.6 mph82%30.05 "Hg15 mi
7:00 PM55 °FSprinkles. More clouds than sun.7 mph82%30.04 "Hg15 mi
6:00 PM59 °FLight rain. More clouds than sun.12 mph68%30.04 "Hg15 mi
5:00 PM61 °FLight rain. Mostly cloudy.10 mph63%30.05 "Hg15 mi
4:00 PM63 °FMostly cloudy.14 mph52%30.06 "Hg15 mi
3:00 PM63 °FPartly sunny.10 mph52%30.07 "Hg15 mi
2:00 PM63 °FPartly sunny.12 mph56%30.09 "Hg15 mi
1:00 PM63 °FPartly sunny.10 mph59%30.11 "Hg15 mi
12:00 PM63 °FPartly sunny.9 mph59%30.13 "Hg15 mi
11:00 AM61 °FScattered clouds.9 mph68%30.16 "Hg15 mi
10:00 AM55 °FScattered clouds.8 mph77%30.17 "Hg15 mi
9:00 AM52 °FScattered clouds.7 mph82%30.19 "Hg15 mi
Weather by CustomWeather, © 2014

See weather overviewHow to use our weather pages